Skrydstrup, Denmark

7:53 AM CET on February 12, 2016 (GMT +0100)
Vojens-Skrydstrup Air Base

Weather History for EKSP - August, 2012

Change the Weather History Date:

Wednesday, August 1, 2012

  Actual Average Record
Temperature  
Mean Temperature 60 °F -  
Max Temperature 71 °F 68 °F 82 °F (2008)
Min Temperature 50 °F 51 °F 42 °F (2015)
Degree Days  
Heating Degree Days 4    
Growing Degree Days 10 (Base 50)    
Moisture  
Dew Point 56 °F    
Average Humidity 83    
Maximum Humidity 100    
Minimum Humidity 64    
Precipitation  
Precipitation 0.00 in - - ()
Sea Level Pressure  
Sea Level Pressure 29.99 in    
Wind  
Wind Speed 5 mph ()    
Max Wind Speed 12 mph    
Max Gust Speed -    
Visibility 5.9 miles    
Events      
Averages and records for this station are not official NWS values.
T = Trace of Precipitation, MM = Missing Value Source: Averaged Metar Reports

Daily Weather History Graph

Daily Weather History Graph

Search for Another Location

Airport or City:

Trip Planner

Search our weather history database for the weather conditions in past years. The results will help you decide how hot, cold, wet, or windy it might be!

Date:

Astronomy

Aug. 01, 2012 Rise Set
Actual Time 5:31 AM CEST 9:26 PM CEST
Civil Twilight 4:44 AM CEST 10:12 PM CEST
Nautical Twilight 3:36 AM CEST 11:19 PM CEST
Astronomical Twilight 2:01 AM CEST 12:56 AM CEST
Moon 8:35 PM CEST (8/1) 4:44 AM CEST (8/1)
Length of Visible Light 17h 28m
Length of Day
15h 54m
Waxing Gibbous, 99% of the Moon is Illuminated
Aug 1
Waxing Gibbous
Aug 2
Full
Aug 9
Last Quarter
Aug 17
New
Aug 24
First Quarter

Hourly Weather History & Observations

Time (CEST) Temp. Dew Point Humidity Pressure Visibility Wind Dir Wind Speed Gust Speed Precip Events Conditions
12:20 AM 50.0 °F 48.2 °F 94% 30.04 in 6.2 mi South 4.6 mph - N/A   Scattered Clouds
12:50 AM 50.0 °F 48.2 °F 94% 30.04 in - South 4.6 mph - N/A   Clear
1:20 AM 50.0 °F 50.0 °F 100% 30.04 in 6.2 mi South 3.5 mph - N/A   Light Drizzle
1:50 AM 50.0 °F 50.0 °F 100% 30.04 in - South 3.5 mph - N/A   Clear
2:20 AM 51.8 °F 50.0 °F 94% 30.04 in 6.2 mi SSE 3.5 mph - N/A   Mostly Cloudy
2:50 AM 51.8 °F 51.8 °F 100% 30.04 in 6.2 mi SSE 5.8 mph - N/A   Mostly Cloudy
3:20 AM 53.6 °F 51.8 °F 94% 30.04 in 6.2 mi South 4.6 mph - N/A   Mostly Cloudy
3:50 AM 53.6 °F 53.6 °F 100% 30.04 in 6.2 mi South 3.5 mph - N/A   Mostly Cloudy
4:20 AM 53.6 °F 53.6 °F 100% 30.04 in 6.2 mi South 1.2 mph - N/A   Mostly Cloudy
4:50 AM 53.6 °F 53.6 °F 100% 30.04 in 5.0 mi SSE 1.2 mph - N/A   Mostly Cloudy
5:20 AM 53.6 °F 53.6 °F 100% 30.04 in 5.0 mi ESE 2.3 mph - N/A   Mostly Cloudy
5:50 AM 55.4 °F 53.6 °F 94% 30.04 in 4.3 mi SE 3.5 mph - N/A   Mostly Cloudy
6:20 AM 55.4 °F 53.6 °F 94% 30.01 in 3.7 mi SE 4.6 mph - N/A   Mostly Cloudy
6:50 AM 55.4 °F 53.6 °F 94% 30.01 in 3.7 mi SSE 4.6 mph - N/A   Mostly Cloudy
7:50 AM 57.2 °F 53.6 °F 88% 30.01 in 4.3 mi SSE 6.9 mph - N/A   Mostly Cloudy
8:20 AM 57.2 °F 55.4 °F 94% 30.01 in 5.0 mi SSE 5.8 mph - N/A   Mostly Cloudy
8:50 AM 59.0 °F 55.4 °F 88% 30.01 in 5.0 mi SSE 6.9 mph - N/A   Mostly Cloudy
9:20 AM 60.8 °F 53.6 °F 77% 30.01 in 6.2 mi SSE 5.8 mph - N/A   Mostly Cloudy
9:50 AM 60.8 °F 55.4 °F 82% 30.01 in 6.2 mi SSE 5.8 mph - N/A   Mostly Cloudy
10:20 AM 62.6 °F 53.6 °F 72% 30.01 in 6.2 mi South 6.9 mph - N/A   Mostly Cloudy
10:50 AM 64.4 °F 53.6 °F 68% 30.01 in 6.2 mi South 10.4 mph - N/A   Mostly Cloudy
11:20 AM 64.4 °F 53.6 °F 68% 30.01 in 6.2 mi South 10.4 mph - N/A   Mostly Cloudy
11:50 AM 66.2 °F 55.4 °F 68% 30.01 in 6.2 mi SSW 9.2 mph - N/A   Mostly Cloudy
12:20 PM 66.2 °F 57.2 °F 73% 30.01 in 6.2 mi South 8.1 mph - N/A   Mostly Cloudy
12:50 PM 66.2 °F 57.2 °F 73% 30.01 in 6.2 mi South 8.1 mph - N/A   Mostly Cloudy
1:20 PM 66.2 °F 57.2 °F 73% 30.01 in 6.2 mi SSW 8.1 mph - N/A   Mostly Cloudy
1:51 PM 68.0 °F 59.0 °F 73% 30.01 in 6.2 mi SSW 10.4 mph - N/A   Mostly Cloudy
2:20 PM 69.8 °F 59.0 °F 68% 29.98 in 6.2 mi South 9.2 mph - N/A   Mostly Cloudy
2:50 PM 69.8 °F 57.2 °F 64% 29.98 in 6.2 mi South 9.2 mph - N/A   Mostly Cloudy
3:20 PM 68.0 °F 57.2 °F 68% 29.98 in 6.2 mi South 8.1 mph - N/A   Scattered Clouds
3:50 PM 69.8 °F 59.0 °F 68% 29.98 in 6.2 mi South 8.1 mph - N/A   Scattered Clouds
4:20 PM 69.8 °F 59.0 °F 68% 29.98 in 6.2 mi SSE 8.1 mph - N/A   Scattered Clouds
4:50 PM 69.8 °F 59.0 °F 68% 29.95 in 6.2 mi South 6.9 mph - N/A   Mostly Cloudy
5:20 PM 69.8 °F 59.0 °F 68% 29.95 in 6.2 mi SSE 8.1 mph - N/A   Mostly Cloudy
5:51 PM 71.6 °F 59.0 °F 64% 29.95 in 6.2 mi SE 9.2 mph - N/A   Mostly Cloudy
6:20 PM 69.8 °F 59.0 °F 68% 29.95 in 6.2 mi SE 8.1 mph - N/A   Mostly Cloudy
6:50 PM 68.0 °F 59.0 °F 73% 29.95 in 6.2 mi ESE 10.4 mph - N/A   Mostly Cloudy
7:20 PM 68.0 °F 60.8 °F 78% 29.92 in 6.2 mi ESE 11.5 mph - N/A   Mostly Cloudy
7:50 PM 66.2 °F 59.0 °F 78% 29.92 in 6.2 mi ESE 11.5 mph - N/A   Mostly Cloudy
8:20 PM 66.2 °F 59.0 °F 78% 29.92 in 6.2 mi ESE 6.9 mph - N/A   Scattered Clouds
8:50 PM 64.4 °F 59.0 °F 83% 29.92 in 6.2 mi East 5.8 mph - N/A   Scattered Clouds
9:20 PM 62.6 °F 59.0 °F 88% 29.92 in 6.2 mi ESE 6.9 mph - N/A   Mostly Cloudy
9:50 PM 62.6 °F 59.0 °F 88% 29.92 in 6.2 mi East 5.8 mph - N/A   Mostly Cloudy
10:20 PM 62.6 °F 59.0 °F 88% 29.92 in 6.2 mi East 4.6 mph - N/A   Mostly Cloudy
10:50 PM 60.8 °F 59.0 °F 94% 29.92 in - East 5.8 mph - N/A   Clear
11:20 PM 62.6 °F 59.0 °F 88% 29.92 in - East 8.1 mph - N/A   Clear
11:50 PM 62.6 °F 59.0 °F 88% 29.92 in - East 9.2 mph - N/A   Clear